GFSFLT1_850_dewp_162.txt.gz
Dewpoint
-1 -3 -7 -10 -11 -12 -13 -13 -14 -15 -16 -16 -16 -14 -13 -11 -9 -8 -7 -6 -5 -4 -3 -2 -1 0 1 0 -1 -4 -2 2
-1 -3 -7 -9 -11 -12 -12 -13 -14 -15 -16 -17 -16 -14 -12 -11 -11 -10 -8 -7 -6 -4 -2 -1 0 1 1 1 2 2 -3 1
-1 -3 -6 -9 -10 -11 -12 -12 -12 -13 -14 -14 -13 -11 -8 -8 -8 -9 -9 -8 -6 -5 -5 -4 -2 -0 1 2 3 3 3 1
-2 -3 -4 -7 -10 -11 -11 -11 -11 -12 -12 -11 -9 -4 -3 -4 -9 -6 -10 -10 -9 -6 -4 -2 -2 0 1 1 3 3 3 3
-2 -3 -4 -6 -9 -10 -10 -11 -11 -11 -11 -10 -9 -5 -4 -8 -6 -9 -11 -10 -10 -8 -6 -4 -1 1 2 2 3 3 3 3
-2 -4 -4 -6 -9 -9 -9 -9 -10 -10 -10 -9 -8 -5 -4 -2 -2 -3 -5 -9 -9 -8 -5 -2 -1 0 2 2 2 2 3 2
-2 -4 -5 -5 -9 -9 -9 -9 -8 -9 -9 -9 -8 -8 -5 -2 -2 -2 -3 -4 -6 -7 -6 -5 -2 -1 1 2 2 2 2 2
-2 -4 -5 -5 -6 -8 -8 -8 -8 -8 -9 -8 -9 -8 -5 -3 -2 -2 -2 -2 -3 -5 -5 -5 -4 -1 -0 1 1 1 2 2
-3 -4 -4 -5 -7 -7 -8 -9 -8 -9 -9 -9 -7 -6 -3 -3 -2 -2 -2 -2 -3 -5 -5 -4 -3 -1 -0 -0 0 1 1 2
-3 -4 -4 -5 -6 -8 -10 -10 -10 -12 -12 -11 -8 -6 -4 -4 -4 -3 -3 -3 -4 -5 -5 -4 -3 -2 -1 -1 -0 0 1 1
-3 -4 -4 -5 -8 -9 -11 -11 -11 -12 -11 -11 -9 -7 -5 -5 -6 -4 -4 -4 -5 -5 -5 -4 -3 -3 -2 -2 -2 -1 -1 0
-3 -3 -4 -6 -7 -7 -9 -11 -11 -10 -10 -10 -8 -8 -7 -6 -7 -6 -4 -5 -5 -5 -5 -4 -4 -3 -3 -3 -3 -3 -3 -1
-3 -3 -4 -5 -6 -9 -9 -11 -10 -10 -10 -9 -8 -7 -7 -6 -5 -6 -5 -5 -5 -6 -6 -5 -4 -4 -4 -4 -4 -3 -4 -4
-3 -3 -6 -8 -10 -11 -10 -10 -8 -9 -9 -8 -6 -7 -7 -6 -6 -7 -6 -6 -6 -6 -6 -6 -5 -5 -5 -5 -5 -5 -4 -3
-3 -5 -7 -8 -9 -10 -11 -10 -9 -10 -9 -6 -6 -7 -7 -7 -8 -7 -6 -7 -7 -7 -7 -7 -6 -6 -6 -5 -7 -6 -5 -4
-3 -6 -7 -8 -9 -10 -10 -10 -10 -10 -8 -7 -7 -6 -7 -7 -8 -7 -7 -7 -7 -7 -7 -7 -7 -7 -7 -7 -7 -7 -5 -5
-4 -4 -7 -7 -6 -9 -10 -10 -10 -8 -7 -7 -7 -7 -7 -7 -8 -7 -7 -7 -7 -8 -8 -8 -7 -8 -8 -7 -7 -7 -6 -6
-4 -4 -5 -4 -8 -9 -9 -9 -9 -8 -7 -7 -7 -8 -8 -8 -8 -7 -8 -8 -8 -9 -8 -8 -8 -8 -8 -8 -8 -7 -7 -6
-4 -3 -1 -6 -9 -10 -10 -9 -8 -7 -7 -7 -8 -9 -8 -8 -8 -8 -9 -9 -9 -9 -8 -8 -9 -9 -9 -9 -8 -8 -8 -7

GFSFLT1_850_dewp_165.txt.gz
Dewpoint
-2 -2 -3 -3 -4 -9 -12 -12 -14 -14 -14 -10 -2 -1 -1 -0 0 0 -8 -3 -5 -5 3 4 3 4 4 4 3 3 3 4
-1 -2 -2 -3 -3 -4 -10 -10 -13 -13 -5 -5 -3 -3 -5 -2 -1 -4 -4 -6 -4 -0 3 2 3 1 -1 1 2 2 2 3
-1 -1 -2 -2 -2 -3 -4 -6 -9 -9 -7 -9 -11 -8 -3 -2 -1 -2 -0 -6 -5 -0 -1 0 1 -1 -1 2 1 3 3 3
-1 -1 -2 -2 -2 -2 -3 -4 -7 -12 -14 -4 -3 -3 -3 -3 -1 -1 0 1 0 -1 0 -2 -4 -3 -1 0 2 2 3 3
-1 -2 -2 -2 -2 -2 -3 -6 -6 -9 -13 -5 -7 -2 -3 -2 -2 -1 -0 0 0 0 0 -0 -4 -3 -2 -1 1 2 2 2
-2 -2 -3 -3 -2 -2 -2 -3 -5 -8 -11 -10 -6 -3 -2 -2 -1 -1 -1 -1 -1 -0 0 -0 -1 -3 -2 -0 -0 1 2 2
-1 -2 -3 -3 -1 -2 -2 -3 -3 -5 -6 -5 -6 -6 -2 -1 -1 -1 -2 -1 -1 -1 -0 -1 -2 -3 -3 -1 -0 -0 1 1
-1 -2 -3 -4 -3 -2 -3 -3 -3 -3 -3 -3 -4 -2 -2 -2 -2 -2 -1 -2 -1 -1 -1 -2 -5 -5 -4 -3 -1 -0 0 0
-1 -3 -4 -3 -3 -3 -2 -3 -4 -3 -3 -3 -2 -2 -2 -2 -2 -1 -1 -2 -2 -1 -2 -2 -4 -4 -3 -3 -2 -1 -1 -0
-1 -3 -3 -4 -4 -2 -2 -3 -4 -4 -3 -3 -3 -2 -2 -2 -2 -2 -2 -2 -2 -2 -2 -3 -3 -4 -3 -2 -2 -2 -2 -1
-1 -3 -3 -4 -4 -3 -3 -4 -4 -4 -4 -3 -3 -2 -2 -2 -3 -3 -3 -2 -2 -2 -3 -3 -4 -4 -4 -3 -3 -2 -2 -2
-2 -3 -3 -4 -4 -4 -4 -4 -4 -4 -4 -4 -3 -3 -4 -3 -3 -4 -4 -4 -3 -3 -4 -4 -5 -4 -4 -4 -3 -3 -3 -3
-2 -2 -3 -4 -4 -5 -5 -4 -4 -5 -5 -4 -3 -3 -4 -3 -4 -5 -6 -5 -4 -4 -5 -5 -5 -5 -5 -5 -4 -5 -5 -5
-2 -2 -2 -3 -4 -5 -5 -5 -5 -5 -6 -4 -4 -4 -5 -4 -5 -6 -5 -5 -5 -5 -5 -5 -6 -6 -6 -6 -6 -5 -6 -6
-2 -2 -4 -5 -6 -6 -6 -5 -5 -5 -5 -4 -4 -4 -4 -5 -6 -6 -5 -5 -6 -5 -6 -6 -6 -6 -7 -6 -7 -7 -7 -7
-1 -2 -7 -8 -10 -8 -7 -5 -5 -5 -5 -5 -5 -5 -5 -5 -6 -6 -5 -6 -6 -6 -7 -7 -6 -7 -7 -8 -8 -8 -7 -7
-2 -2 -6 -8 -5 -6 -5 -6 -7 -5 -5 -5 -6 -6 -6 -7 -6 -6 -6 -7 -7 -7 -7 -7 -7 -7 -8 -9 -9 -9 -8 -7
-2 -3 -3 -3 -4 -5 -7 -7 -6 -6 -6 -6 -6 -7 -7 -7 -7 -6 -6 -7 -7 -7 -7 -7 -8 -8 -9 -10 -10 -9 -8 -8
-3 -3 -3 -4 -7 -8 -8 -7 -7 -7 -6 -7 -6 -7 -7 -7 -7 -7 -7 -7 -7 -8 -8 -8 -8 -9 -9 -9 -10 -9 -9 -9

GFSFLT1_850_dewp_168.txt.gz
Dewpoint
-1 -1 -2 -2 -1 -2 -5 -8 -12 -13 -12 -7 -2 -1 -5 -2 -2 -4 -10 -11 -12 -11 -7 -5 -4 -3 -2 -2 1 -2 -1 1
-2 -1 -2 -2 -1 -2 -6 -8 -11 -12 -7 -9 -9 -7 -5 -2 -2 -3 -2 -6 -9 -8 -6 -7 -5 -6 -5 -1 0 -1 -2 -0
-1 -1 -2 -2 -1 -1 -2 -3 -8 -9 -9 -11 -12 -11 -6 -2 -1 -2 -0 -5 -7 -7 -6 -4 -4 -8 -9 -5 -1 2 1 1
-1 -1 -1 -1 -1 -1 -2 -2 -3 -10 -12 -4 -7 -3 -3 -2 -4 -1 -3 -1 -2 -3 -3 -3 -2 -3 -4 -2 1 2 2 1
-1 -1 -1 -1 -1 -1 -2 -2 -3 -9 -12 -7 -10 -3 -2 -2 -1 -0 -2 -0 -2 -1 -1 -2 -3 -1 -2 -2 -1 1 1 1
-1 -1 -1 -1 -1 -2 -1 -2 -3 -7 -10 -12 -10 -9 -6 -2 -2 -3 -1 -2 -1 -1 -0 -1 -2 -2 -2 -4 -4 -2 0 1
-1 -1 -2 -2 -2 -1 -1 -2 -2 -6 -9 -11 -12 -11 -11 -6 -4 -2 -2 -4 -2 -2 -1 -2 -3 -5 -4 -3 -2 -1 -0 -0
-1 -1 -2 -3 -1 -1 -1 -2 -3 -6 -8 -9 -9 -10 -6 -6 -4 -6 -8 -4 -4 -3 -4 -3 -4 -4 -3 -2 -2 -1 -1 -1
-1 -2 -3 -3 -2 -1 -3 -3 -3 -3 -3 -5 -7 -9 -6 -3 -6 -9 -6 -2 -2 -3 -3 -4 -5 -5 -5 -4 -2 -1 -2 -2
-0 -2 -3 -3 -2 -2 -1 -3 -3 -3 -3 -5 -4 -3 -6 -4 -6 -6 -7 -6 -5 -4 -4 -4 -4 -5 -5 -3 -3 -3 -2 -3
-0 -2 -3 -3 -3 -2 -2 -3 -3 -4 -5 -6 -4 -5 -6 -7 -5 -5 -7 -6 -5 -3 -4 -4 -4 -4 -4 -4 -4 -4 -4 -3
-0 -2 -2 -3 -3 -2 -3 -3 -3 -4 -5 -5 -4 -5 -6 -5 -4 -4 -5 -5 -4 -4 -4 -4 -4 -5 -5 -5 -5 -5 -5 -5
-1 -2 -2 -3 -3 -4 -3 -4 -5 -6 -7 -6 -4 -5 -6 -5 -4 -5 -6 -5 -4 -5 -5 -5 -5 -5 -5 -6 -6 -6 -6 -7
-1 -2 -2 -3 -4 -5 -4 -4 -4 -7 -6 -4 -4 -4 -4 -4 -6 -7 -5 -5 -5 -5 -5 -6 -6 -6 -6 -6 -7 -7 -9 -8
-1 -1 -2 -3 -3 -4 -5 -5 -5 -5 -4 -4 -4 -4 -5 -5 -7 -6 -5 -5 -6 -6 -6 -6 -7 -7 -7 -7 -8 -10 -10 -10
-0 -2 -2 -3 -5 -4 -4 -5 -6 -5 -5 -5 -5 -5 -6 -6 -6 -6 -5 -6 -6 -7 -7 -7 -7 -7 -7 -8 -9 -9 -9 -8
-0 -2 -3 -7 -9 -5 -5 -5 -6 -6 -6 -6 -6 -6 -6 -7 -6 -6 -7 -7 -7 -7 -8 -8 -8 -8 -8 -9 -10 -10 -9 -9
-1 -2 -5 -7 -4 -4 -5 -6 -7 -6 -6 -6 -6 -7 -7 -7 -7 -7 -7 -8 -8 -8 -8 -9 -9 -9 -9 -10 -10 -11 -10 -10
-2 -3 -3 -3 -5 -6 -7 -6 -6 -6 -6 -6 -7 -8 -7 -8 -8 -8 -8 -8 -9 -9 -9 -10 -10 -10 -11 -11 -11 -12 -11 -11

GFSFLT1_850_dewp_171.txt.gz
Dewpoint
-1 -0 -1 -1 -1 -1 -2 -4 -9 -12 -11 -10 -6 -4 -5 -9 -10 -11 -13 -13 -14 -15 -14 -14 -14 -14 -13 -13 -12 -11 -9 -6
-1 -1 -1 -2 -2 -2 -3 -4 -6 -6 -5 -7 -6 -7 -7 -5 -3 -7 -11 -10 -12 -12 -15 -15 -15 -15 -13 -12 -11 -11 -11 -6
-1 -1 -2 -2 -3 -3 -3 -2 -4 -5 -6 -8 -10 -7 -2 -1 -1 -4 -5 -9 -9 -10 -13 -13 -14 -14 -14 -13 -9 -9 -8 -3
-1 -1 -2 -2 -3 -3 -2 -2 -4 -5 -7 -6 -5 -3 -1 -1 -3 -5 -6 -5 -4 -6 -10 -9 -10 -11 -12 -12 -8 -5 -2 -4
-1 -1 -2 -2 -2 -2 -3 -2 -4 -5 -6 -6 -8 -5 -4 -4 -4 -3 -4 -3 -3 -4 -5 -6 -7 -9 -10 -10 -8 -5 -1 -1
-1 -1 -1 -1 -2 -1 -3 -3 -5 -4 -7 -8 -9 -7 -7 -5 -5 -5 -3 -4 -4 -4 -5 -7 -9 -8 -8 -8 -7 -4 -1 -1
-1 -1 -1 -1 -1 -1 -3 -3 -4 -5 -6 -8 -9 -9 -9 -8 -8 -8 -7 -7 -4 -4 -6 -7 -7 -7 -7 -5 -4 -2 -2 -1
-1 -1 -1 -1 -1 -2 -4 -2 -3 -4 -5 -6 -7 -9 -8 -11 -10 -11 -11 -10 -7 -5 -5 -5 -5 -5 -5 -4 -4 -3 -2 -2
-1 -1 -1 -2 -2 -3 -3 -3 -3 -4 -5 -6 -8 -11 -10 -12 -12 -13 -11 -10 -8 -6 -6 -6 -6 -6 -5 -4 -3 -3 -3 -3
-2 -2 -3 -2 -2 -3 -4 -3 -3 -3 -6 -7 -8 -9 -10 -11 -11 -12 -10 -9 -8 -8 -7 -7 -6 -5 -4 -4 -4 -4 -4 -4
-2 -3 -3 -2 -2 -2 -2 -3 -4 -4 -7 -7 -8 -10 -10 -10 -10 -9 -9 -9 -8 -7 -6 -5 -5 -5 -5 -5 -5 -5 -5 -5
-2 -2 -3 -3 -3 -2 -2 -3 -4 -6 -8 -8 -8 -8 -9 -10 -10 -9 -9 -9 -7 -6 -5 -5 -5 -5 -6 -6 -6 -6 -7 -8
-1 -2 -3 -3 -3 -3 -4 -4 -4 -6 -7 -7 -6 -8 -9 -9 -8 -8 -8 -5 -5 -5 -5 -6 -6 -6 -7 -7 -7 -7 -8 -9
-2 -2 -3 -3 -3 -4 -4 -5 -6 -7 -6 -6 -7 -7 -7 -7 -8 -8 -6 -5 -6 -6 -6 -7 -7 -7 -7 -7 -8 -8 -9 -9
-1 -2 -3 -3 -4 -5 -5 -5 -6 -5 -5 -6 -6 -6 -6 -8 -8 -6 -5 -6 -6 -7 -7 -7 -7 -8 -8 -8 -9 -10 -12 -11
-1 -2 -3 -4 -4 -5 -5 -6 -6 -6 -6 -5 -6 -6 -8 -8 -7 -7 -6 -7 -7 -8 -8 -8 -9 -9 -9 -9 -10 -11 -12 -12
-1 -2 -3 -3 -3 -5 -6 -6 -6 -6 -6 -6 -7 -7 -8 -8 -8 -8 -8 -7 -8 -8 -9 -9 -10 -9 -10 -11 -11 -11 -13 -11
-1 -2 -2 -3 -6 -7 -5 -5 -6 -7 -6 -6 -7 -8 -8 -8 -9 -10 -9 -8 -9 -10 -11 -11 -11 -10 -11 -12 -12 -13 -13 -12
-1 -2 -2 -5 -5 -4 -5 -7 -6 -6 -6 -7 -8 -9 -8 -10 -10 -10 -9 -10 -10 -11 -13 -13 -12 -12 -12 -12 -13 -15 -14 -14

GFSFLT1_850_dewp_174.txt.gz
Dewpoint
2 1 0 0 0 -1 -2 -4 -7 -8 -6 -4 -2 -2 -5 -9 -10 -10 -11 -14 -19 -20 -20 -21 -22 -21 -23 -23 -21 -20 -18 -20
-0 -0 -0 0 -0 -1 -2 -5 -7 -9 -6 -3 -1 -2 -6 -7 -5 -5 -10 -12 -17 -17 -17 -17 -18 -19 -19 -20 -21 -22 -20 -19
0 0 -0 -0 -1 -1 -2 -4 -7 -9 -7 -3 -4 -4 -2 -2 -2 -3 -6 -10 -13 -14 -14 -15 -16 -18 -19 -18 -17 -18 -15 -11
-0 -0 -1 -1 -1 -2 -3 -5 -7 -8 -8 -7 -4 -2 -1 -1 -2 -3 -5 -7 -8 -11 -12 -13 -14 -15 -15 -13 -12 -10 -9 -7
-1 -1 -1 -2 -2 -2 -4 -4 -5 -7 -8 -6 -3 -2 -1 -2 -3 -3 -5 -5 -9 -11 -11 -12 -14 -14 -14 -12 -11 -8 -3 -4
-1 -2 -2 -2 -2 -2 -3 -3 -5 -6 -8 -7 -5 -3 -4 -4 -4 -5 -4 -7 -10 -11 -11 -12 -12 -12 -12 -11 -10 -8 -5 -2
-1 -1 -2 -2 -1 -2 -3 -4 -5 -6 -8 -8 -7 -8 -8 -8 -7 -7 -9 -10 -10 -10 -11 -11 -10 -10 -10 -10 -9 -6 -3 -3
-1 -1 -1 -1 -1 -2 -2 -4 -4 -5 -7 -8 -9 -11 -10 -9 -10 -11 -11 -10 -10 -10 -9 -9 -9 -9 -9 -8 -7 -5 -4 -4
-0 -1 -1 -1 -1 -2 -3 -3 -3 -5 -7 -8 -9 -9 -8 -10 -11 -11 -12 -11 -9 -9 -8 -8 -8 -8 -7 -6 -6 -5 -5 -5
-1 -1 -1 -1 -2 -3 -3 -3 -4 -4 -5 -8 -8 -8 -10 -12 -12 -10 -9 -9 -9 -8 -8 -8 -7 -6 -5 -6 -6 -5 -6 -6
-1 -1 -2 -2 -2 -3 -3 -4 -4 -4 -5 -8 -8 -9 -9 -10 -10 -10 -9 -9 -9 -9 -8 -7 -6 -6 -6 -6 -6 -7 -7 -8
-2 -2 -2 -2 -3 -3 -3 -3 -4 -4 -6 -9 -8 -9 -9 -10 -9 -9 -9 -9 -8 -8 -8 -7 -7 -6 -7 -7 -7 -8 -9 -9
-2 -2 -2 -2 -2 -2 -2 -3 -4 -5 -8 -9 -8 -8 -10 -9 -8 -9 -8 -8 -8 -8 -8 -7 -7 -7 -8 -8 -9 -10 -10 -11
-2 -2 -2 -2 -2 -2 -3 -4 -5 -7 -8 -7 -7 -8 -8 -8 -9 -8 -7 -8 -8 -8 -8 -7 -8 -8 -8 -9 -10 -11 -11 -12
-1 -2 -2 -2 -3 -3 -4 -5 -6 -7 -6 -7 -7 -7 -7 -8 -8 -8 -7 -8 -8 -9 -8 -8 -9 -9 -9 -10 -11 -12 -14 -14
-0 -2 -3 -3 -3 -4 -4 -6 -7 -6 -7 -6 -6 -7 -8 -8 -8 -8 -8 -8 -9 -11 -13 -12 -12 -9 -10 -11 -13 -17 -17 -16
-0 -2 -3 -3 -4 -4 -5 -6 -6 -6 -6 -6 -7 -7 -8 -9 -10 -10 -10 -10 -11 -12 -15 -15 -13 -11 -11 -12 -13 -18 -18 -16
-1 -3 -4 -4 -4 -4 -5 -7 -6 -6 -7 -7 -7 -8 -9 -11 -12 -12 -11 -12 -12 -15 -17 -18 -16 -15 -14 -12 -13 -18 -18 -16
-1 -3 -4 -4 -3 -4 -7 -3 -6 -7 -7 -7 -9 -10 -10 -13 -13 -13 -13 -14 -16 -19 -21 -22 -21 -21 -16 -13 -14 -18 -19 -17